DELTA 1 DEB, 7147

Orbit data source: Space-Track

DELTA 1 DEB, 7147 is space debris in SSO originally from a launch on Tue, 06 Nov 1973 UTC launched from the Air Force Western Test Range (AFWTR). Debris objects in space refer to the collection of defunct objects orbiting the Earth. Examples of debris include non-operational satellites, rocket bodies, and fragments generated from explosions, collisions, or faulty payload assembly.

Loading next visibility...
Identifier
7147, 1973-086DM
Orbit
SSO
Country
Flag of USUS
Related business
Manufacturer
Unknown
Mission
Spacecraft
Bus & Motor
Unknown
Mass
Unknown
Launch date (UTC)
1973-11-06 (53 years ago)
Launch vehicle
Unknown
Launch site
Air Force Western Test Range (AFWTR)
Object type
Payload
Rocket body
Debris
Shape & HBR
Unknown shape, 0.5 m
Radar Cross Section
Medium (>0.1 m² and <1 m²)

Expand to show TLE details & history
Last TLE update: 18 hours ago

TLE from 18 hours ago
0 DELTA 1 DEB
1  7147U 73086DM  26209.06495697 -.00000010  00000-0  28299-3 0  9993
2  7147 102.2075 154.7823 0054813 253.3337 169.4891 12.33138904372076
Epoch: 2026-07-28T01:33Z
TLE epoch observation values (Epoch: 2026-07-28T01:33:32.282Z)
Latitude
60.59109°
Longitude
163.2035°
Altitude
1,588.609 km
Speed
7.061 km/s
True Right ascension
08h 49m 18s
True Declination
60° 27' 33"
Sunlit
Object was in daylight at epoch
Visualization orbit readout
Latitude
Unknown
Longitude
Unknown
Altitude
Unknown
Speed
Unknown
Apparent Right ascension
Unknown
Apparent Declination
Unknown
Sunlit
N/A
Visualization observer readout
Local Sidereal Time
08:41:50
Azimuth
Unknown
Elevation
Unknown
Doppler factor
Unknown
Orbital elements
Apogee altitude
1,576.784 km
Perigee altitude
1,490.053 km
Semi-major axis
7,911.556 km
Eccentricity
0.00548
Inclination
102.2075°
RAAN
154.7823°
Arg. of periapsis
253.3337°
True anomaly
169.60291°
Mean anomaly
169.4891°
Eccentric anomaly
169.54608°
Mean motion
3.08426 °/min
Orbital period
116.72 mins
BSTAR
0.00028299
Loading maneuver chart data...
Computing Atmospheric mass density...
Loading historical data...
Loading historical data...
Loading historical data...
Loading historical data...
Loading historical data...
Loading historical data...
Loading historical data...

Documentation

Showing up to 5 results
|